This is the latest recevied weather packets stored in our database for station/object 9W2KHE-10. If no packets are shown the sender has not sent any weather packets the latest 10 day(s).
| Time | Temp. | Humidity | Pressure | Rain* | Wind** | Luminosity | Snow |
|---|---|---|---|---|---|---|---|
| 1777271796 | 30° C | 62% | 1009.4 hPa | - | - | - | - |
| 1777270896 | 30° C | 62% | 1010.1 hPa | - | - | - | - |
| 1777269996 | 30.56° C | 60% | 1010.4 hPa | - | - | - | - |
| 1777269096 | 31.11° C | 60% | 1010.2 hPa | - | - | - | - |
| 1777268196 | 30.56° C | 63% | 1009.8 hPa | - | - | - | - |
| 1777267295 | 30.56° C | 64% | 1010 hPa | - | - | - | - |
| 1777266395 | 31.11° C | 63% | 1010.3 hPa | - | - | - | - |
| 1777265495 | 30.56° C | 64% | 1010.4 hPa | - | - | - | - |
| 1777264595 | 30.56° C | 65% | 1010.7 hPa | - | - | - | - |
| 1777263695 | 30° C | 67% | 1011 hPa | - | - | - | - |
| 1777262795 | 30° C | 68% | 1011.4 hPa | - | - | - | - |
| 1777261895 | 30° C | 68% | 1011.7 hPa | - | - | - | - |
| 1777260994 | 29.44° C | 69% | 1011.8 hPa | - | - | - | - |
| 1777260094 | 29.44° C | 71% | 1012 hPa | - | - | - | - |
| 1777259194 | 29.44° C | 71% | 1012 hPa | - | - | - | - |
| 1777258346 | 28.89° C | 71% | 1012.1 hPa | - | - | - | - |
| 1777257446 | 28.89° C | 71% | 1012.2 hPa | - | - | - | - |
| 1777256546 | 28.89° C | 72% | 1012.2 hPa | - | - | - | - |
| 1777255646 | 28.33° C | 71% | 1012.2 hPa | - | - | - | - |
| 1777254745 | 28.33° C | 72% | 1012.3 hPa | - | - | - | - |
| 1777253845 | 28.33° C | 71% | 1012.2 hPa | - | - | - | - |
| 1777252945 | 28.33° C | 71% | 1011.9 hPa | - | - | - | - |
| 1777252045 | 27.78° C | 71% | 1011.8 hPa | - | - | - | - |
| 1777251145 | 27.78° C | 70% | 1011.7 hPa | - | - | - | - |
| 1777250245 | 27.78° C | 69% | 1011.4 hPa | - | - | - | - |
* Rain since midnight (hover to see other rain measurements)
** Current wind speed in m/s (hover to see current wind gust speed)